Flight Track Log - Related Links

Times and Time Zones

All times are in EDT time to prevent confusion due to time zone crossing. See the N238PC flight status page for this flight to view local times or setup timezone preferences in your user account.


Time Position Orientation Groundspeed Altitude Reporting Facility
EDT Latitude Longitude Course Direction KTS MPH feet Rate Location/Type
Tue 10:34:15 AM 35.0982 -92.4322 334° Northwest  Level FlightAware Approximate
Tue 10:35:14 AM 35.3897 -92.6033 343° North 173 199 10,500  Level Memphis Center
Tue 10:36:41 AM 35.4539 -92.6281 344° North 186 214 12,300 1,306 Climbing Memphis Center
Tue 10:37:41 AM 35.5017 -92.6447 340° North 181 208 13,700 1,400 Climbing Memphis Center
Tue 10:38:41 AM 35.5514 -92.6664 343° North 181 208 15,100 1,500 Climbing Memphis Center
Tue 10:39:41 AM 35.6011 -92.6856 344° North 181 208 16,700 1,600 Climbing Memphis Center
Tue 10:40:41 AM 35.6486 -92.7022 338° Northwest 181 208 18,300 1,400 Climbing Memphis Center
Tue 10:41:41 AM 35.6922 -92.7242 339° North 181 208 19,500 950 Climbing Memphis Center
Tue 10:42:41 AM 35.7436 -92.7486 338° Northwest 186 214 20,200 900 Climbing Memphis Center
Tue 10:43:41 AM 35.7975 -92.7756 342° North 197 227 21,300 1,050 Climbing Memphis Center
Tue 10:44:41 AM 35.8533 -92.7978 339° North 202 232 22,300 950 Climbing Memphis Center
Tue 10:45:41 AM 35.9050 -92.8222 340° North 202 232 23,200 850 Climbing Memphis Center
Tue 10:46:41 AM 35.9608 -92.8469 342° North 202 232 24,000 400 Climbing Memphis Center
Tue 10:47:41 AM 36.0228 -92.8719 341° North 209 241 24,000  Level Memphis Center
Tue 10:48:41 AM 36.0889 -92.8997 337° Northwest 232 267 24,000  Level Memphis Center
Tue 10:49:41 AM 36.1550 -92.9353 343° North 249 287 24,000  Level Memphis Center
Tue 10:50:41 AM 36.2272 -92.9633 339° North 254 292 24,000  Level Memphis Center
Tue 10:51:41 AM 36.2956 -92.9964 343° North 259 298 24,000  Level Memphis Center
Tue 10:52:41 AM 36.3678 -93.0244 341° North 264 304 24,000  Level Memphis Center
Tue 10:53:41 AM 36.4381 -93.0550 350° North 264 304 24,000  Level Memphis Center
Tue 10:55:24 AM 36.5611 -93.0811 North 270 311 24,000  Level Kansas City Center
Tue 10:56:24 AM 36.6361 -93.0722 North 270 311 24,000  Level Kansas City Center
Tue 10:57:24 AM 36.7133 -93.0706 North 270 311 24,000  Level Kansas City Center
Tue 10:58:24 AM 36.7883 -93.0667 North 270 311 24,000  Level Kansas City Center
Tue 10:59:24 AM 36.8656 -93.0522 North 270 311 24,000  Level Kansas City Center
Tue 11:00:24 AM 36.9383 -93.0508 North 270 311 24,000  Level Kansas City Center
Tue 11:01:24 AM 37.0133 -93.0392 North 270 311 24,000  Level Kansas City Center
Tue 11:02:24 AM 37.0906 -93.0297 North 270 311 24,000  Level Kansas City Center
Tue 11:03:24 AM 37.1656 -93.0206 North 270 311 24,000  Level Kansas City Center
Tue 11:04:24 AM 37.2406 -93.0086 North 270 311 24,000  Level Kansas City Center
Tue 11:05:24 AM 37.3153 -92.9992 North 270 311 24,000  Level Kansas City Center
Tue 11:06:24 AM 37.3925 -92.9872 North 270 311 24,000  Level Kansas City Center
Tue 11:07:24 AM 37.4672 -92.9728 North 275 316 24,000  Level Kansas City Center
Tue 11:08:24 AM 37.5422 -92.9658 North 275 316 24,000  Level Kansas City Center
Tue 11:09:24 AM 37.6153 -92.9567 North 275 316 24,000  Level Kansas City Center
Tue 11:10:24 AM 37.6903 -92.9444 359° North 275 316 24,000  Level Kansas City Center
Tue 11:11:24 AM 37.7611 -92.9458 342° North 268 308 24,000  Level Kansas City Center
Tue 11:12:24 AM 37.8261 -92.9733 326° Northwest 253 291 24,000  Level Kansas City Center
Tue 11:13:24 AM 37.8808 -93.0194 327° Northwest 238 274 24,000  Level Kansas City Center
Tue 11:14:24 AM 37.9400 -93.0683 334° Northwest 238 274 24,000  Level Kansas City Center
Tue 11:15:24 AM 38.0031 -93.1067 337° Northwest 238 274 24,000  Level Kansas City Center
Tue 11:16:24 AM 38.0658 -93.1397 336° Northwest 238 274 24,000  Level Kansas City Center
Tue 11:17:24 AM 38.1289 -93.1756 333° Northwest 238 274 24,000  Level Kansas City Center
Tue 11:18:24 AM 38.1919 -93.2167 334° Northwest 238 274 24,000  Level Kansas City Center
Tue 11:19:24 AM 38.2528 -93.2553 335° Northwest 243 280 24,000  Level Kansas City Center
Tue 11:20:24 AM 38.3178 -93.2939 336° Northwest 249 287 24,000  Level Kansas City Center
Tue 11:21:24 AM 38.3828 -93.3300 334° Northwest 249 287 24,000  Level Kansas City Center
Tue 11:22:24 AM 38.4436 -93.3686 336° Northwest 249 287 24,000  Level Kansas City Center
Tue 11:23:24 AM 38.5108 -93.4075 333° Northwest 254 292 24,000  Level Kansas City Center
Tue 11:24:24 AM 38.5736 -93.4492 335° Northwest 254 292 24,000  Level Kansas City Center
Tue 11:25:24 AM 38.6386 -93.4881 335° Northwest 254 292 24,000  Level Kansas City Center
Tue 11:26:24 AM 38.6994 -93.5244 336° Northwest 254 292 24,000  Level Kansas City Center
Tue 11:27:24 AM 38.7622 -93.5608 333° Northwest 254 292 24,000  Level Kansas City Center
Tue 11:28:24 AM 38.8231 -93.6000 333° Northwest 249 287 24,000  Level Kansas City Center
Tue 11:29:24 AM 38.8839 -93.6392 337° Northwest 249 287 24,000  Level Kansas City Center
Tue 11:30:24 AM 38.9467 -93.6733 333° Northwest 249 287 24,000  Level Kansas City Center
Tue 11:31:24 AM 38.9947 -93.7047 335° Northwest 244 281 24,000  Level Kansas City Center
Tue 11:32:24 AM 39.0658 -93.7467 332° Northwest 230 265 24,000  Level Kansas City Center
Tue 11:33:24 AM 39.1244 -93.7861 337° Northwest 235 270 24,000  Level Kansas City Center
Tue 11:34:24 AM 39.1872 -93.8203 334° Northwest 235 270 24,000  Level Kansas City Center
Tue 11:35:24 AM 39.2417 -93.8547 334° Northwest 241 277 24,000  Level Kansas City Center
Tue 11:36:24 AM 39.3086 -93.8969 335° Northwest 241 277 24,000  Level Kansas City Center
Tue 11:37:24 AM 39.3711 -93.9342 335° Northwest 241 277 24,000  Level Kansas City Center
Tue 11:38:24 AM 39.4278 -93.9686 334° Northwest 241 277 24,000  Level Kansas City Center
Tue 11:39:24 AM 39.4861 -94.0058 335° Northwest 241 277 24,000  Level Kansas City Center
Tue 11:40:24 AM 39.5550 -94.0483 336° Northwest 241 277 24,000  Level Kansas City Center
Tue 11:41:24 AM 39.6197 -94.0858 334° Northwest 241 277 24,000  Level Kansas City Center
Tue 11:42:24 AM 39.6742 -94.1203 333° Northwest 241 277 24,000  Level Kansas City Center
Tue 11:43:24 AM 39.7347 -94.1606 334° Northwest 241 277 24,000  Level Kansas City Center
Tue 11:44:24 AM 39.8036 -94.2033 335° Northwest 241 277 24,000  Level Kansas City Center
Tue 11:45:24 AM 39.8661 -94.2411 333° Northwest 241 277 24,000  Level Kansas City Center
Tue 11:46:24 AM 39.9225 -94.2786 334° Northwest 241 277 24,000  Level Kansas City Center
Tue 11:47:24 AM 39.9914 -94.3217 335° Northwest 241 277 24,000  Level Kansas City Center
Tue 11:48:24 AM 40.0539 -94.3594 333° Northwest 241 277 24,000  Level Kansas City Center
Tue 11:49:24 AM 40.1164 -94.4003 335° Northwest 241 277 24,000  Level Kansas City Center
Tue 11:50:24 AM 40.1747 -94.4353 333° Northwest 247 284 24,000  Level Kansas City Center
Tue 11:52:30 AM 40.3086 -94.5250 336° Northwest 254 292 24,000  Level Minneapolis Center
Tue 11:53:30 AM 40.3811 -94.5669 336° Northwest 254 292 24,000  Level Minneapolis Center
Tue 11:54:30 AM 40.4431 -94.6033 331° Northwest 254 292 24,000  Level Minneapolis Center
Tue 11:55:30 AM 40.5050 -94.6481 334° Northwest 254 292 24,000  Level Minneapolis Center
Tue 11:56:30 AM 40.5669 -94.6875 331° Northwest 249 287 24,000  Level Minneapolis Center
Tue 11:57:30 AM 40.6247 -94.7294 335° Northwest 242 278 24,000  Level Minneapolis Center
Tue 11:58:30 AM 40.6886 -94.7692 335° Northwest 242 278 24,000  Level Minneapolis Center
Tue 11:59:30 AM 40.7525 -94.8086 331° Northwest 242 278 24,000  Level Minneapolis Center
Tue 12:00:31 PM 40.8144 -94.8539 334° Northwest 242 278 24,000  Level Minneapolis Center
Tue 12:01:30 PM 40.8764 -94.8936 332° Northwest 242 278 24,000  Level Minneapolis Center
Tue 12:02:31 PM 40.9381 -94.9361 333° Northwest 242 278 24,000  Level Minneapolis Center
Tue 12:03:30 PM 41.0019 -94.9789 336° Northwest 242 278 24,000  Level Minneapolis Center
Tue 12:04:30 PM 41.0658 -95.0161 333° Northwest 242 278 24,000  Level Minneapolis Center
Tue 12:05:30 PM 41.1278 -95.0589 333° Northwest 242 278 24,000  Level Minneapolis Center
Tue 12:06:30 PM 41.1917 -95.1019 336° Northwest 242 278 24,000  Level Minneapolis Center
Tue 12:07:30 PM 41.2556 -95.1394 333° Northwest 247 284 24,000  Level Minneapolis Center
Tue 12:08:30 PM 41.3153 -95.1797 334° Northwest 247 284 24,000  Level Minneapolis Center
Tue 12:09:30 PM 41.3811 -95.2231 331° Northwest 247 284 24,000  Level Minneapolis Center
Tue 12:10:30 PM 41.4408 -95.2664 333° Northwest 247 284 24,000  Level Minneapolis Center
Tue 12:11:31 PM 41.5044 -95.3097 336° Northwest 247 284 24,000  Level Minneapolis Center
Tue 12:12:30 PM 41.5683 -95.3478 332° Northwest 247 284 24,000  Level Minneapolis Center
Tue 12:13:30 PM 41.6319 -95.3939 334° Northwest 253 291 24,000  Level Minneapolis Center
Tue 12:14:31 PM 41.6958 -95.4347 334° Northwest 253 291 24,000  Level Minneapolis Center
Tue 12:15:30 PM 41.7597 -95.4758 333° Northwest 253 291 24,000  Level Minneapolis Center
Tue 12:16:31 PM 41.8233 -95.5197 334° Northwest 253 291 24,000  Level Minneapolis Center
Tue 12:17:31 PM 41.8869 -95.5608 333° Northwest 253 291 24,000  Level Minneapolis Center
Tue 12:18:30 PM 41.9508 -95.6050 332° Northwest 253 291 24,000  Level Minneapolis Center
Tue 12:19:30 PM 42.0122 -95.6489 334° Northwest 253 291 24,000 -298 Level Minneapolis Center
Tue 12:20:31 PM 42.0800 -95.6933 333° Northwest 258 297 23,400 -800 Descending Minneapolis Center
Tue 12:21:30 PM 42.1500 -95.7406 335° Northwest 258 297 22,400 -857 Descending Minneapolis Center
Tue 12:22:30 PM 42.2217 -95.7853 334° Northwest 278 320 21,700 -800 Descending Minneapolis Center
Tue 12:23:30 PM 42.2936 -95.8331 331° Northwest 278 320 20,800 -1,000 Descending Minneapolis Center
Tue 12:24:30 PM 42.3611 -95.8833 333° Northwest 278 320 19,700 -1,050 Descending Minneapolis Center
Tue 12:25:30 PM 42.4308 -95.9311 334° Northwest 278 320 18,700 -1,150 Descending Minneapolis Center
Tue 12:26:30 PM 42.5028 -95.9792 331° Northwest 278 320 17,400 -1,200 Descending Minneapolis Center
Tue 12:27:30 PM 42.5703 -96.0300 332° Northwest 278 320 16,300 -1,150 Descending Minneapolis Center
Tue 12:28:30 PM 42.6439 -96.0839 333° Northwest 283 326 15,100 -992 Descending Minneapolis Center
Tue 12:29:31 PM 42.7014 -96.1231 335° Northwest 283 326 14,300 -893 Descending Minneapolis Center
Tue 12:30:31 PM 42.7772 -96.1717 332° Northwest 277 319 13,300 -1,100 Descending Minneapolis Center
Tue 12:31:31 PM 42.8467 -96.2231 334° Northwest 277 319 12,100 -1,261 Descending Minneapolis Center
Tue 12:32:30 PM 42.9244 -96.2747 332° Northwest 282 325 10,800 -1,250 Descending Minneapolis Center
Tue 12:33:31 PM 42.9961 -96.3264 334° Northwest 282 325 9,600 -1,091 Descending Minneapolis Center
Tue 12:34:31 PM 43.0658 -96.3722 331° Northwest 282 325 8,600 -857 Descending Minneapolis Center
Tue 12:35:30 PM 43.1269 -96.4181 328° Northwest 271 312 7,900 -1,050 Descending Minneapolis Center
Tue 12:36:31 PM 43.1861 -96.4694 326° Northwest 259 298 6,500 -992 Descending Minneapolis Center
Tue 12:37:31 PM 43.2408 -96.5206 330° Northwest 246 283 5,900 -650 Descending Minneapolis Center
Tue 12:38:31 PM 43.2917 -96.5603 331° Northwest 234 269 5,200 -750 Descending Minneapolis Center
Tue 12:39:31 PM 43.3569 -96.6094 341° North 246 283 4,400 -550 Descending Minneapolis Center
Tue 12:40:31 PM 43.4250 -96.6417 338° Northwest 256 295 4,100 -202 Descending Minneapolis Center
Tue 12:41:30 PM 43.4864 -96.6764 342° North 256 295 4,000 -151 Descending Minneapolis Center
Tue 12:42:30 PM 43.5461 -96.7028 358° North 234 269 3,800 -694 Descending Minneapolis Center
Tue 12:43:31 PM 43.5897 -96.7050 323° Northwest 196 226 2,600 -942 Descending Minneapolis Center
Tue 12:44:31 PM 43.6161 -96.7322 323° Northwest 132 152 1,900 -700 Descending Minneapolis Center

Login

Don't have an account? Register now (free) for customized features, flight alerts, and more!